This is the latest recevied weather packets stored in our database for station/object W2IRT. If no packets are shown the sender has not sent any weather packets the latest 10 day(s).
| Time | Temp. | Humidity | Pressure | Rain* | Wind** | Luminosity | Snow |
|---|---|---|---|---|---|---|---|
| 1777518916 | 10.56° C | 88% | 1009.8 hPa | 2.79 mm | - | - | - |
| 1777518615 | 10.56° C | 87% | 1009.7 hPa | 2.54 mm | - | - | - |
| 1777518326 | 10.56° C | 87% | 1009.8 hPa | 2.54 mm | - | - | - |
| 1777518016 | 10.56° C | 87% | 1009.3 hPa | 2.54 mm | - | - | - |
| 1777517716 | 10.56° C | 86% | 1009.5 hPa | 2.54 mm | - | - | - |
| 1777517415 | 10.56° C | 87% | 1009.8 hPa | 2.54 mm | - | - | - |
| 1777517115 | 10.56° C | 87% | 1010 hPa | 2.29 mm | - | - | - |
| 1777516815 | 10.56° C | 87% | 1010.1 hPa | 2.29 mm | - | - | - |
| 1777516516 | 10.56° C | 87% | 1010.3 hPa | 2.03 mm | - | - | - |
| 1777516216 | 11.11° C | 87% | 1010.2 hPa | 2.03 mm | - | - | - |
| 1777515915 | 11.11° C | 87% | 1010.5 hPa | 1.78 mm | - | - | - |
| 1777515616 | 11.11° C | 87% | 1010.5 hPa | 1.52 mm | - | - | - |
| 1777515316 | 11.11° C | 87% | 1010.5 hPa | 1.27 mm | - | - | - |
| 1777515016 | 11.11° C | 87% | 1010.5 hPa | 1.52 mm | - | - | - |
| 1777514715 | 11.11° C | 86% | 1010.4 hPa | 1.27 mm | - | - | - |
| 1777514415 | 11.11° C | 86% | 1010.5 hPa | 1.27 mm | - | - | - |
| 1777514115 | 11.11° C | 86% | 1010.5 hPa | 1.27 mm | - | - | - |
| 1777513816 | 11.11° C | 86% | 1010.3 hPa | 1.02 mm | - | - | - |
| 1777513516 | 11.11° C | 86% | 1010.3 hPa | 1.27 mm | - | - | - |
| 1777513215 | 11.11° C | 86% | 1010.5 hPa | 1.02 mm | - | - | - |
| 1777512916 | 11.11° C | 85% | 1010.5 hPa | 1.27 mm | - | - | - |
| 1777512625 | 11.11° C | 85% | 1010.5 hPa | 1.27 mm | - | - | - |
| 1777512315 | 11.11° C | 85% | 1010.5 hPa | 1.27 mm | - | - | - |
| 1777512015 | 11.11° C | 84% | 1010.4 hPa | 1.27 mm | - | - | - |
| 1777511715 | 11.11° C | 84% | 1010.4 hPa | 1.27 mm | - | - | - |
* Rain latest hour (hover to see other rain measurements)
** Current wind speed in m/s (hover to see current wind gust speed)